Regional Weather Roundup
Issued by NWS Goodland, KS

Home | Current Version | Previous Version | Graphics & Text | Print | Product List | Glossary On
Versions: 1 2 3 4 5 6 7 8 9 10 11 12 13 14 15 16 17 18 19 20 21 22 23 24 25 26 27 28 29 30 31 32 33 34 35 36 37 38 39 40 41 42 43 44 45 46 47 48 49 50
000
ASUS43 KGLD 291908
RWRGLD

GOODLAND FORECAST AREA HOURLY WEATHER ROUNDUP
NATIONAL WEATHER SERVICE GOODLAND KS
100 PM MDT TUE JUL 29 2014

...OFFICIAL OBSERVATIONS...

CITY           SKY/WX    TMP DP  RH WIND       PRES   REMARKS
GOODLAND KS    PTSUNNY   84  61  45 SE15G22   30.17F
HILL CITY KS   MOSUNNY   85  59  41 VRB3      30.15F
IMPERIAL NEB   MOSUNNY   80  59  48 E10       30.19F
MCCOOK NEB     MOSUNNY   82  59  45 E12G20    30.17F
AKRON CO       MOSUNNY   82  57  42 SE15G26   30.19F
BURLINGTON CO  PTSUNNY   83  62  49 S10G21    30.18F
LIMON CO       TSTM      76  53  44 SE12      30.21F
$$

...UNOFFICIAL OBSERVATIONS...

CITY           SKY/WX    TMP DP  RH WIND       PRES   REMARKS
COLBY KS       PTSUNNY   84  64  51 SE14      30.17F
GOVE KS          N/A     85  32  15 MISG        N/A
LENORA KS        N/A     81  32  17 MISG        N/A
NORTON KS      MOSUNNY   88  50  27 E7G17     30.16F
OBERLIN KS     PTSUNNY   84  55  37 SE10      30.16F
ST FRANCIS KS  MOSUNNY   84  55  37 SE12G20   30.15F
TRIBUNE KS     MOSUNNY   81  39  22 SE13G20   30.18
WAKEENEY KS      N/A     86  51  30 MISG        N/A
TRENTON NEB      N/A     82  32  16 SE12        N/A
KIT CARSON CO    N/A     81  63  54 N9          N/A
WRAY CO          N/A     86  55  35 SE16G22   30.16F
YUMA CO          N/A     83  60  45 E13         N/A
$$


USA.gov is the U.S. government's official web portal to all federal, state and local government web resources and services.